Brownsville, TX

6:16 PM CDT on July 20, 2017 (GMT -0500)
Brownsville-South Padre I International

Weather History for KBRO - May, 2013

Change the Weather History Date:

Wednesday, May 29, 2013

  Actual Average Record
Temperature  
Mean Temperature 85 °F 82 °F  
Max Temperature 91 °F 91 °F 98 °F (1922)
Min Temperature 78 °F 74 °F 60 °F (1901)
Degree Days  
Heating Degree Days 0 0  
Month to date heating degree days 1 0  
Since 1 July heating degree days 329 554  
Cooling Degree Days 20 17  
Month to date cooling degree days 422 440  
Year to date cooling degree days 1081 1057  
Growing Degree Days 34 (Base 50)    
Moisture  
Dew Point 75 °F    
Average Humidity 75    
Maximum Humidity 91    
Minimum Humidity 59    
Precipitation  
Precipitation 0.02 in 0.10 in 7.17 in (1929)
Month to date precipitation 0.74 2.46  
Year to date precipitation 5.60 7.58  
Sea Level Pressure  
Sea Level Pressure 29.78 in    
Wind  
Wind Speed 18 mph (SE)    
Max Wind Speed 33 mph    
Max Gust Speed 41 mph    
Visibility 10 miles    
Events Rain    
T = Trace of Precipitation, MM = Missing Value Source: NWS Daily Summary

Daily Weather History Graph

Daily Weather History Graph

Search for Another Location

Airport or City:

Trip Planner

Search our weather history database for the weather conditions in past years. The results will help you decide how hot, cold, wet, or windy it might be!

Date:

Astronomy

May. 29, 2013 Rise Set
Actual Time 6:38 AM CDT 8:16 PM CDT
Civil Twilight 6:12 AM CDT 8:41 PM CDT
Nautical Twilight 5:42 AM CDT 9:12 PM CDT
Astronomical Twilight 5:10 AM CDT 9:44 PM CDT
Moon No Moon Rise 11:23 AM CDT (5/29)
Length of Visible Light 14h 28m
Length of Day
13h 37m
Waning Gibbous, 73% of the Moon is Illuminated
May 29
Waning Gibbous
May 31
Last Quarter
Jun 8
New
Jun 16
First Quarter
Jun 23
Full

Hourly Weather History & Observations

Time (CDT) Temp. Heat Index Dew Point Humidity Pressure Visibility Wind Dir Wind Speed Gust Speed Precip Events Conditions
12:29 AM 80.6 °F 86.2 °F 75.2 °F 84% 29.81 in 10.0 mi SE 21.9 mph 27.6 mph N/A   Mostly Cloudy
12:53 AM 79.0 °F - 75.0 °F 88% 29.81 in 10.0 mi SE 18.4 mph - N/A   Mostly Cloudy
1:44 AM 78.8 °F - 75.2 °F 89% 29.80 in 10.0 mi SE 17.3 mph 25.3 mph N/A   Scattered Clouds
1:53 AM 79.0 °F - 75.0 °F 88% 29.80 in 10.0 mi SE 15.0 mph - N/A   Scattered Clouds
2:53 AM 79.0 °F - 75.0 °F 88% 29.78 in 10.0 mi SE 17.3 mph - N/A   Partly Cloudy
3:53 AM 79.0 °F - 75.0 °F 88% 29.79 in 10.0 mi SE 15.0 mph - N/A   Scattered Clouds
4:43 AM 78.8 °F - 75.2 °F 89% 29.79 in 10.0 mi SSE 15.0 mph 21.9 mph N/A   Mostly Cloudy
4:53 AM 79.0 °F - 75.0 °F 88% 29.78 in 10.0 mi SE 13.8 mph - N/A   Mostly Cloudy
5:51 AM 78.8 °F - 75.2 °F 89% 29.78 in 10.0 mi SE 13.8 mph - N/A   Scattered Clouds
5:53 AM 78.1 °F - 75.0 °F 90% 29.78 in 10.0 mi SE 13.8 mph - N/A   Partly Cloudy
6:53 AM 79.0 °F - 75.0 °F 88% 29.80 in 10.0 mi SE 12.7 mph - N/A   Partly Cloudy
7:24 AM 78.8 °F - 75.2 °F 89% 29.83 in 10.0 mi SSE 8.1 mph - N/A   Mostly Cloudy
7:53 AM 80.1 °F 85.1 °F 75.0 °F 85% 29.84 in 10.0 mi SSE 11.5 mph - N/A   Overcast
8:36 AM 82.4 °F 89.5 °F 75.2 °F 79% 29.84 in 10.0 mi SSE 12.7 mph - N/A   Scattered Clouds
8:53 AM 81.0 °F 87.3 °F 75.9 °F 85% 29.83 in 8.0 mi South 10.4 mph - 0.00 in Rain Rain
9:30 AM 80.6 °F 86.2 °F 75.2 °F 84% 29.85 in 10.0 mi SSE 17.3 mph - 0.02 in   Scattered Clouds
9:53 AM 82.9 °F 90.8 °F 75.9 °F 79% 29.84 in 10.0 mi SSE 13.8 mph - 0.02 in   Mostly Cloudy
10:53 AM 87.1 °F 95.4 °F 73.9 °F 65% 29.84 in 10.0 mi SSE 21.9 mph - N/A   Mostly Cloudy
11:53 AM 88.0 °F 96.5 °F 73.9 °F 63% 29.83 in 10.0 mi SSE 20.7 mph 27.6 mph N/A   Mostly Cloudy
12:53 PM 90.0 °F 99.0 °F 73.9 °F 59% 29.81 in 10.0 mi SSE 20.7 mph 31.1 mph N/A   Mostly Cloudy
1:53 PM 89.1 °F 98.0 °F 73.9 °F 61% 29.79 in 10.0 mi SE 23.0 mph 29.9 mph N/A   Mostly Cloudy
2:53 PM 90.0 °F 97.9 °F 73.0 °F 57% 29.77 in 10.0 mi SSE 25.3 mph 33.4 mph N/A   Partly Cloudy
3:53 PM 89.1 °F 98.0 °F 73.9 °F 61% 29.73 in 10.0 mi SSE 29.9 mph 38.0 mph 0.00 in   Scattered Clouds
4:53 PM 87.1 °F 95.4 °F 73.9 °F 65% 29.72 in 10.0 mi SE 25.3 mph 33.4 mph 0.00 in   Scattered Clouds
5:16 PM 87.8 °F 95.6 °F 73.4 °F 62% 29.72 in 10.0 mi SE 23.0 mph 32.2 mph N/A   Mostly Cloudy
5:27 PM 87.8 °F 95.6 °F 73.4 °F 62% 29.72 in 10.0 mi SSE 25.3 mph 33.4 mph N/A   Scattered Clouds
5:40 PM 86.0 °F 93.4 °F 73.4 °F 66% 29.72 in 10.0 mi SE 25.3 mph 33.4 mph N/A   Mostly Cloudy
5:53 PM 84.9 °F 92.1 °F 73.9 °F 69% 29.73 in 10.0 mi SSE 26.5 mph 33.4 mph N/A   Mostly Cloudy
6:02 PM 84.2 °F 90.9 °F 73.4 °F 70% 29.73 in 10.0 mi SE 21.9 mph 33.4 mph N/A   Scattered Clouds
6:31 PM 84.2 °F 90.9 °F 73.4 °F 70% 29.73 in 10.0 mi SE 19.6 mph 28.8 mph N/A   Mostly Cloudy
6:53 PM 82.9 °F 89.4 °F 73.9 °F 74% 29.73 in 10.0 mi SSE 20.7 mph 29.9 mph N/A   Mostly Cloudy
7:33 PM 82.4 °F 88.2 °F 73.4 °F 74% 29.74 in 10.0 mi SSE 19.6 mph 23.0 mph N/A   Mostly Cloudy
7:53 PM 82.0 °F 88.6 °F 75.0 °F 79% 29.74 in 10.0 mi SE 18.4 mph - N/A   Mostly Cloudy
8:00 PM 82.4 °F 89.5 °F 75.2 °F 79% 29.74 in 10.0 mi SE 17.3 mph 25.3 mph N/A   Mostly Cloudy
8:19 PM 80.6 °F 86.2 °F 75.2 °F 84% 29.74 in 10.0 mi SE 18.4 mph 27.6 mph N/A   Mostly Cloudy
8:53 PM 81.0 °F 86.7 °F 75.0 °F 82% 29.73 in 10.0 mi SE 19.6 mph 25.3 mph N/A   Mostly Cloudy
9:29 PM 80.6 °F 86.2 °F 75.2 °F 84% 29.76 in 10.0 mi SE 15.0 mph - N/A   Partly Cloudy
9:53 PM 80.1 °F 85.1 °F 75.0 °F 85% 29.76 in 10.0 mi SE 12.7 mph - N/A   Partly Cloudy
10:53 PM 80.1 °F 85.1 °F 75.0 °F 85% 29.77 in 10.0 mi SE 16.1 mph - N/A   Clear
11:53 PM 80.1 °F 85.4 °F 75.9 °F 87% 29.77 in 10.0 mi SE 13.8 mph 19.6 mph N/A   Scattered Clouds